Location: Montbazon
(47.2835°N, 0.6999°E)
Time: 18:23:52
(UTC+00:00)

Cosmos 1140 Rocket - Pass Details

Date: 08 November 2025
Orbit: 740 x 761 km, 74.1° (Epoch: 10 December)

Event Time Altitude Azimuth Distance (km) Brightness Sun altitude
Exits shadow 04:15:54 31° 355° (N) 1,280 4.6 -26.5°
Maximum altitude 04:18:14 62° 65° (ENE) 836 3.8 -26.1°
Drops below altitude 10° 04:23:16 10° 146° (SE) 2,246 6.3 -25.2°
Sets 04:25:38 0° 150° (SSE) 3,165 7.1 -24.8°
